Location: Ahstedt
(52.2048°N, 10.1060°E)
Time: 23:19:18
(UTC+00:00)

Cosmos 540 Rocket - Pass Details

Date: 19 April 2026
Orbit: 734 x 748 km, 74.1° (Epoch: 15 May)

Event Time Altitude Azimuth Distance (km) Brightness Sun altitude
Exits shadow 03:14:14 10° 220° (SW) 2,261 5.3 -9.1°
Reaches altitude 10° 03:14:15 10° 220° (SW) 2,257 5.3 -9.1°
Maximum altitude 03:19:18 59° 300° (WNW) 865 3.6 -8.4°
Drops below altitude 10° 03:24:24 10° 20° (NNE) 2,278 6.8 -7.8°
Sets 03:26:49 0° 24° (NNE) 3,206 7.7 -7.4°
